CAPE
0 0 0 0 0 0 0 0 0 1 2 449 461 338 369 238 194 222 209 90 25 7 7 3 3 9 19 36 3 2 0 0
0 0 0 0 0 0 0 0 0 3 6 5 383 428 336 389 225 184 171 88 14 1 1 0 1 4 8 5 6 3 2 0
0 0 0 0 0 0 0 0 0 2 4 6 5 545 437 343 294 178 167 79 13 1 2 3 4 1 1 34 11 2 2 0
0 0 0 0 0 0 0 0 0 2 3 4 4 551 369 321 249 173 195 98 12 0 0 0 0 5 0 18 43 1 0 1
0 0 0 0 0 0 0 0 0 1 2 5 6 23 440 396 325 139 123 100 18 0 0 1 22 8 33 14 16 25 5 1
0 0 0 0 0 0 0 0 0 1 2 3 5 7 27 438 268 108 54 52 12 2 0 0 6 25 11 0 2 1 6 6
0 0 0 0 0 0 0 0 0 0 1 3 4 8 7 66 308 169 118 47 21 2 0 0 0 38 13 2 13 6 0 1
0 0 0 0 0 0 0 0 1 1 1 3 3 4 6 3 43 185 136 51 9 2 2 1 0 9 29 19 42 33 12 24
0 0 0 0 0 0 0 0 1 1 1 2 2 3 3 6 4 176 135 89 36 2 2 2 0 0 2 20 36 38 34 25
0 0 0 0 0 0 0 0 0 1 1 2 1 2 2 4 4 2 150 141 57 15 1 2 1 0 0 0 0 0 0 17
0 0 0 0 0 0 0 0 0 0 1 2 2 2 1 3 4 5 0 86 114 43 3 2 1 0 0 0 0 0 0 6
0 0 0 0 0 0 0 0 0 0 0 2 2 2 2 2 4 4 3 4 202 101 5 1 1 0 0 0 0 0 0 1
0 0 0 0 0 0 0 0 0 0 0 2 1 2 2 2 3 3 5 5 2 206 98 3 1 1 0 1 0 3 9 2
0 0 0 0 0 0 0 0 0 0 0 0 2 2 2 2 2 3 3 3 0 0 39 41 5 1 1 2 9 19 17 4
0 0 0 0 0 0 0 0 0 0 0 0 2 1 2 1 1 1 2 2 5 0 3 43 103 5 0 0 2 15 29 24
0 0 0 0 0 0 0 0 0 0 0 0 0 0 3 2 1 2 1 2 4 3 4 28 83 48 2 2 2 6 9 4
0 0 0 0 0 0 0 0 0 0 0 0 0 0 0 0 2 1 2 2 4 5 2 3 38 76 17 0 1 18 18 19
0 0 0 0 0 0 0 0 0 0 0 0 0 0 0 0 1 1 2 3 4 4 3 4 3 98 55 10 5 5 2 17
0 0 0 0 0 0 0 0 0 0 0 0 0 0 0 0 0 1 0 3 3 5 5 3 4 0 56 30 3 19 34 12
CIN
0 0 0 0 0 0 0 0 0 0 0 -16 -35 -61 -23 -48 -38 -2 -1 -1 -20 -27 -43 -21 0 0 0 0 -15 -3 0 0
0 0 0 0 0 0 0 0 0 0 0 -1 -19 -41 -53 -16 -24 -15 -2 -9 -25 -1 0 0 0 0 -2 -2 -14 -54 -23 0
0 0 0 0 0 0 0 0 0 0 0 0 0 -10 -19 -23 -15 -22 -8 -14 -67 -1 -36 0 -12 0 -1 0 -3 -7 0 0
0 0 0 0 0 0 0 0 0 0 0 0 0 -2 -16 -14 -27 -32 -17 -18 -61 0 0 0 0 -8 0 -1 -1 0 0 0
0 0 0 0 0 0 0 0 0 0 0 0 0 -12 -1 -20 -45 -42 -30 -22 -70 0 0 -4 -16 -77 -96 -104 -30 -16 -71 0
0 0 0 0 0 0 0 0 0 0 0 0 0 0 -4 -2 -32 -41 -43 -46 -71 0 0 0 -34 -2 -2 0 -104 -14 -48 -53
0 0 0 0 0 0 0 0 0 0 0 0 0 0 0 -6 -12 -15 -24 -50 -81 -32 0 0 0 -5 -26 -35 -54 -152 0 0
0 0 0 0 0 0 0 0 0 0 0 0 0 0 0 0 -73 -15 -8 -27 -55 0 0 0 0 -44 -16 -17 -9 -52 -86 -35
0 0 0 0 0 0 0 0 0 0 0 0 0 0 0 0 0 -21 -26 -33 -58 -1 0 0 0 0 -25 -12 -5 -35 -67 -44
0 0 0 0 0 0 0 0 0 0 0 0 0 0 0 0 0 0 -7 -39 -69 -41 -8 0 0 0 0 -12 0 -68 -39 -32
0 0 0 0 0 0 0 0 0 0 0 0 0 0 0 0 0 0 0 -23 -7 -30 -57 0 0 0 0 0 0 0 0 -3
0 0 0 0 0 0 0 0 0 0 0 0 0 0 0 0 0 0 0 -9 -2 -36 -81 0 0 0 0 -1 0 0 0 0
0 0 0 0 0 0 0 0 0 0 0 0 0 0 0 0 0 0 0 0 -1 -1 -29 -78 0 0 0 -1 -1 -1 0 0
0 0 0 0 0 0 0 0 0 0 0 0 0 0 0 0 0 0 0 0 0 0 -1 -22 -76 0 0 0 0 -7 -48 -70
0 0 0 0 0 0 0 0 0 0 0 0 0 0 0 0 0 0 0 0 0 0 -24 -7 -46 -101 0 0 0 -15 -19 -18
0 0 0 0 0 0 0 0 0 0 0 0 0 0 0 0 0 0 0 0 0 0 0 -17 -14 -34 -16 0 0 -3 0 0
0 0 0 0 0 0 0 0 0 0 0 0 0 0 -1 0 0 0 0 0 0 0 0 0 -19 0 -25 -35 0 -11 -1 -2
0 0 0 0 0 0 0 0 0 0 0 0 0 0 0 0 0 0 0 0 0 0 0 0 0 -32 -30 -73 -44 -16 -8 -13
0 0 0 0 0 0 0 0 0 0 0 0 0 0 0 0 0 0 0 0 0 0 0 0 0 0 -64 -114 -90 -39 -13 -30
Wind_Speed
34 34 34 33 33 33 33 32 33 35 33 29 26 25 25 22 23 17 15 13 14 14 13 14 15 24 24 25 21 21 19 14
34 34 35 34 33 33 33 33 34 33 33 32 31 30 24 25 24 25 18 15 12 12 18 7 10 23 30 28 20 20 20 16
36 36 36 35 35 34 33 33 33 33 34 37 35 28 28 27 26 25 22 16 12 12 14 8 7 19 32 30 19 20 22 20
37 37 37 36 35 35 34 34 34 33 35 35 34 27 28 28 26 24 24 17 15 13 11 10 8 12 26 28 23 24 22 23
36 37 37 36 36 36 35 34 34 33 33 34 36 33 33 32 28 26 25 19 18 16 14 12 10 11 17 22 25 29 24 27
36 36 36 36 36 36 35 34 33 33 33 33 35 35 34 32 29 28 27 25 19 18 18 16 17 15 13 16 24 29 30 29
35 34 34 35 35 35 34 34 33 33 33 33 34 36 36 34 31 30 28 27 23 19 20 19 21 15 15 17 23 29 33 32
35 35 35 35 36 35 34 34 34 34 34 33 34 35 36 36 35 34 31 29 27 22 22 22 21 21 17 16 18 29 33 33
34 35 34 34 35 35 34 34 34 34 34 33 33 34 35 38 36 37 33 32 31 27 22 22 23 20 20 18 19 23 33 33
34 35 34 34 35 35 35 34 33 33 34 33 33 34 35 37 37 38 35 32 33 31 30 26 25 23 21 20 20 24 37 39
34 34 35 35 35 35 34 34 33 33 33 33 33 33 35 36 39 39 36 32 33 34 32 31 26 24 26 24 21 31 32 37
34 35 35 34 34 34 34 34 34 33 32 33 33 33 33 34 35 37 41 42 40 35 34 31 28 28 28 27 25 25 33 33
33 34 34 35 35 34 34 34 33 32 32 33 33 33 33 32 33 36 36 42 38 35 36 35 33 29 31 34 29 29 29 29
34 33 34 34 35 34 33 33 33 32 31 33 32 31 32 33 34 33 34 39 40 44 44 38 37 32 30 33 33 31 29 27
35 35 34 35 34 33 33 33 32 31 30 31 31 31 31 32 34 34 35 35 36 38 49 49 40 36 35 32 34 35 35 34
35 35 36 35 35 34 33 32 31 31 30 29 30 31 30 32 33 34 34 33 35 38 45 44 44 41 36 33 33 36 34 39
35 35 36 35 35 35 34 33 32 31 30 29 31 30 31 31 33 34 34 35 34 36 39 43 47 38 37 34 32 33 39 38
36 36 36 35 34 33 34 33 31 31 30 30 30 31 31 31 32 33 33 34 37 39 38 39 43 38 37 40 29 26 35 44
37 37 38 35 34 32 31 31 30 30 30 30 31 31 30 31 32 32 33 34 35 37 38 39 43 43 45 45 44 39 22 33
Wind_Direction
311 310 311 310 308 305 301 296 291 282 279 266 266 267 266 264 261 258 248 245 232 247 230 247 222 227 225 227 215 216 218 216
309 311 311 309 310 307 303 298 292 284 275 275 262 262 262 263 261 258 254 252 243 239 244 239 226 230 230 227 213 218 223 219
305 307 309 309 306 306 302 300 294 287 276 272 272 260 262 262 262 259 255 246 247 260 227 228 214 231 230 226 216 214 224 218
304 304 304 307 307 303 301 298 296 289 283 277 275 262 260 259 261 258 256 240 231 225 208 217 203 191 222 226 222 216 219 224
307 306 303 303 304 303 299 297 295 293 288 276 269 269 257 258 258 260 256 247 232 230 213 225 207 188 199 205 221 225 226 225
310 308 305 303 305 305 301 296 293 294 288 281 272 267 269 257 256 258 256 251 237 229 215 234 239 226 217 209 214 226 231 231
313 312 311 305 307 307 304 297 293 293 292 283 276 268 268 263 253 256 254 254 248 234 230 221 235 235 221 223 228 225 232 235
315 313 310 311 307 307 305 301 293 292 290 286 281 271 267 263 263 253 252 254 250 241 230 234 219 242 233 226 222 230 231 236
316 314 312 310 310 307 306 302 295 291 290 287 283 277 269 263 265 260 251 253 252 250 238 235 230 236 234 234 233 225 234 240
315 315 314 311 310 310 306 304 299 293 289 288 284 281 274 266 266 263 259 254 253 251 248 240 237 234 233 228 231 236 241 242
322 320 317 314 312 309 310 308 303 296 291 289 285 283 277 272 267 263 261 260 255 252 252 248 240 237 240 238 231 241 242 246
323 324 320 316 315 313 310 309 307 301 293 289 286 283 283 278 272 269 263 259 256 255 251 249 243 242 241 239 237 237 243 248
322 323 323 320 317 316 312 310 308 305 295 291 289 285 283 282 281 272 271 261 261 257 251 250 247 245 246 243 240 240 239 241
323 323 324 319 317 316 313 311 309 311 300 291 291 289 285 282 282 281 277 269 266 260 260 250 247 247 249 243 243 243 238 238
322 324 320 320 316 316 314 311 309 313 305 297 291 292 288 286 283 282 279 276 267 262 255 254 249 251 248 245 244 245 246 248
319 320 319 320 320 317 315 312 308 311 303 298 297 293 294 289 287 283 283 280 273 267 263 260 254 247 249 248 246 247 246 250
312 315 317 317 318 318 316 313 308 309 302 297 303 300 294 296 290 288 284 281 280 275 270 259 253 254 251 251 254 250 250 252
310 311 311 311 311 312 315 311 305 306 306 301 303 305 299 298 297 293 288 287 283 278 277 274 266 267 253 254 251 252 254 251
310 310 311 309 308 307 308 312 311 309 310 305 305 306 307 303 302 300 296 293 287 284 282 279 274 268 259 257 259 264 222 251